Location: Slanting_Bridge
(35.6330°N, 80.9830°W)
Time: 12:29:06
(UTC-04:00)

Hamsat - Visible Passes

Search period start: 29 August 2016 00:00
Search period end: 08 September 2016 00:00
Orbit: 586 x 620 km, 97.6° (Epoch: 28 August)

Date Brightness Start Highest point End Pass type
(mag) Time Alt. Az. Time Alt. Az. Time Alt. Az.
29 Aug ? 04:55:19 10° NE 04:58:07 17° E 05:00:55 10° SE visible
30 Aug ? 05:06:45 10° NE 05:10:12 23° E 05:13:39 10° SSE visible
31 Aug ? 05:18:25 10° NNE 05:22:17 32° E 05:26:08 10° SSE visible
01 Sep ? 05:30:12 10° NNE 05:34:19 45° E 05:38:27 10° S visible
02 Sep ? 05:42:05 10° NNE 05:46:21 64° E 05:50:37 10° S visible
03 Sep ? 05:54:03 10° NNE 05:58:22 89° SE 06:02:41 10° SSW visible
04 Sep ? 06:06:05 10° N 06:10:21 65° WNW 06:14:38 10° SSW visible
05 Sep ? 04:44:27 10° ENE 04:46:21 13° E 04:48:14 10° ESE visible
05 Sep ? 06:18:12 10° N 06:22:19 46° WNW 06:26:27 10° SSW visible
06 Sep ? 04:55:32 10° NE 04:58:27 18° E 05:01:21 10° SE visible
06 Sep ? 06:30:24 10° N 06:34:16 33° WNW 06:38:09 10° SW visible
07 Sep ? 05:07:00 10° NE 05:10:32 24° E 05:14:03 10° SSE visible
